This is the latest recevied weather packets stored in our database for station/object W4CKA. If no packets are shown the sender has not sent any weather packets the latest 10 day(s).
| Time | Temp. | Humidity | Pressure | Rain* | Wind** | Luminosity | Snow |
|---|---|---|---|---|---|---|---|
| 1777768707 | 11.67° C | 54% | 1057.5 hPa | 0 mm | - | 0 W/m² | - |
| 1777768107 | 11.67° C | 53% | 1057.5 hPa | 0 mm | - | 0 W/m² | - |
| 1777767506 | 12.22° C | 51% | 1057.3 hPa | 0 mm | - | 0 W/m² | - |
| 1777766906 | 12.22° C | 53% | 1057.3 hPa | 0 mm | - | 9 W/m² | - |
| 1777766306 | 12.22° C | 51% | 1057.2 hPa | 0 mm | - | 16 W/m² | - |
| 1777765706 | 12.22° C | 51% | 1057.3 hPa | 0 mm | - | 22 W/m² | - |
| 1777765106 | 12.78° C | 50% | 1057 hPa | 0 mm | - | 23 W/m² | - |
| 1777764505 | 13.33° C | 50% | 1057 hPa | 0 mm | - | 34 W/m² | - |
| 1777763904 | 13.33° C | 47% | 1056.9 hPa | 0 mm | - | 84 W/m² | - |
| 1777763300 | 13.89° C | 49% | 1056.8 hPa | 0 mm | - | 72 W/m² | - |
| 1777762694 | 16.11° C | 44% | 1056.8 hPa | 0 mm | - | 108 W/m² | - |
| 1777762093 | 14.44° C | 45% | 1056.7 hPa | 0 mm | - | 147 W/m² | - |
| 1777761493 | 13.89° C | 49% | 1056.7 hPa | 0 mm | - | 110 W/m² | - |
| 1777760889 | 13.89° C | 48% | 1056.8 hPa | 0 mm | - | 117 W/m² | - |
| 1777760287 | 14.44° C | 47% | 1056.5 hPa | 0 mm | - | 247 W/m² | - |
| 1777759687 | 14.44° C | 47% | 1056.5 hPa | 0 mm | - | 256 W/m² | - |
| 1777759085 | 14.44° C | 44% | 1056.3 hPa | 0 mm | - | 300 W/m² | - |
| 1777758486 | 14.44° C | 45% | 1056.4 hPa | 0 mm | - | 232 W/m² | - |
| 1777757885 | 13.89° C | 46% | 1056.2 hPa | 0 mm | - | 92 W/m² | - |
| 1777757281 | 14.44° C | 46% | 1056.1 hPa | 0 mm | - | 77 W/m² | - |
| 1777756681 | 14.44° C | 45% | 1056.2 hPa | 0 mm | - | 188 W/m² | - |
| 1777756081 | 15° C | 41% | 1056.1 hPa | 0 mm | - | 158 W/m² | - |
| 1777755481 | 15.56° C | 40% | 1056 hPa | 0 mm | - | 185 W/m² | - |
| 1777754881 | 15.56° C | 43% | 1055.9 hPa | 0 mm | - | 199 W/m² | - |
| 1777754275 | 15.56° C | 45% | 1056 hPa | 0 mm | - | 586 W/m² | - |
* Rain latest hour (hover to see other rain measurements)
** Current wind speed in m/s (hover to see current wind gust speed)